RYR86DZ EBCI-LFMU

Flight info

Callsign RYR86DZ
Flight time 1h 14m
Altitude 19000
Route CIV Y50 IDOKO/N0322F170 Y50 MATIX/N0331F190 Y50 REM B3 VATRI G40 TRO B373 MOU A27 MINPA/N0327F180 A27 MOKDI/N0331F190 A27 MEN J27 AFRIC
Aircraft B738/M-SDE3FGILRWY/SB1

Departure

Time 2026-04-21 14:17
Airport Brussels South Charleroi Airport (EBCI)

Arrival

Time 2026-04-21 15:31
Airport Béziers Vias airport (LFMU)
Time Latitude Longitude Altitude Speed Heading
2026-04-21 13:48 50.46926 4.47287 617 ft 0 kts 335°
2026-04-21 14:06 50.46926 4.47288 612 ft 1 kts 335°
2026-04-21 14:06 50.46904 4.47304 625 ft 4 kts 335°
2026-04-21 14:06 50.46886 4.47318 616 ft 4 kts 310°
2026-04-21 14:07 50.46882 4.47347 617 ft 3 kts 245°
2026-04-21 14:07 50.46891 4.47379 622 ft 1 kts 245°
2026-04-21 14:07 50.46892 4.47379 612 ft 0 kts 245°
2026-04-21 14:10 50.46890 4.47373 623 ft 2 kts 245°
2026-04-21 14:10 50.46876 4.47325 619 ft 7 kts 245°
2026-04-21 14:10 50.46834 4.47243 620 ft 12 kts 238°
2026-04-21 14:11 50.46795 4.47109 617 ft 14 kts 245°
2026-04-21 14:11 50.46755 4.46972 619 ft 13 kts 245°
2026-04-21 14:11 50.46717 4.46841 614 ft 13 kts 245°
2026-04-21 14:11 50.46680 4.46715 618 ft 13 kts 245°
2026-04-21 14:12 50.46645 4.46591 619 ft 12 kts 246°
2026-04-21 14:12 50.46577 4.46554 625 ft 12 kts 158°
2026-04-21 14:12 50.46517 4.46493 620 ft 13 kts 246°
2026-04-21 14:12 50.46475 4.46347 618 ft 17 kts 245°
2026-04-21 14:13 50.46416 4.46144 620 ft 23 kts 245°
2026-04-21 14:13 50.46341 4.45884 614 ft 29 kts 246°
2026-04-21 14:13 50.46263 4.45618 623 ft 26 kts 245°
2026-04-21 14:13 50.46190 4.45368 621 ft 24 kts 245°
2026-04-21 14:14 50.46127 4.45150 616 ft 19 kts 246°
2026-04-21 14:14 50.46072 4.44961 621 ft 19 kts 245°
2026-04-21 14:14 50.46019 4.44780 622 ft 18 kts 246°
2026-04-21 14:14 50.45969 4.44603 617 ft 17 kts 246°
2026-04-21 14:15 50.45915 4.44437 616 ft 17 kts 236°
2026-04-21 14:15 50.45844 4.44295 615 ft 16 kts 232°
2026-04-21 14:15 50.45776 4.44159 623 ft 16 kts 232°
2026-04-21 14:15 50.45711 4.44028 612 ft 15 kts 232°
2026-04-21 14:16 50.45630 4.44014 617 ft 14 kts 117°
2026-04-21 14:16 50.45696 4.44287 622 ft 57 kts 65°
2026-04-21 14:16 50.45968 4.45218 620 ft 128 kts 65°
2026-04-21 14:16 50.46381 4.46666 1124 ft 148 kts 64°
2026-04-21 14:17 50.46822 4.48086 2208 ft 144 kts 63°
2026-04-21 14:17 50.47543 4.49231 2964 ft 164 kts 21°
2026-04-21 14:17 50.48709 4.49856 3367 ft 192 kts 39°
2026-04-21 14:17 50.49520 4.51622 3698 ft 211 kts 61°
2026-04-21 14:18 50.50313 4.53635 4308 ft 221 kts 56°
2026-04-21 14:18 50.51214 4.55640 5019 ft 228 kts 55°
2026-04-21 14:18 50.52202 4.57723 5531 ft 245 kts 54°
2026-04-21 14:18 50.53359 4.59762 6378 ft 254 kts 37°
2026-04-21 14:19 50.55003 4.60834 7352 ft 264 kts 12°
2026-04-21 14:19 50.56860 4.60714 8293 ft 275 kts 348°
2026-04-21 14:19 50.58566 4.59351 9220 ft 287 kts 322°
2026-04-21 14:19 50.59800 4.56787 10165 ft 298 kts 295°
2026-04-21 14:20 50.60237 4.53559 10813 ft 314 kts 270°
2026-04-21 14:20 50.59748 4.50144 11083 ft 338 kts 242°
2026-04-21 14:20 50.58346 4.47141 11782 ft 345 kts 222°
2026-04-21 14:20 50.56500 4.44721 12659 ft 347 kts 215°
2026-04-21 14:21 50.54528 4.42475 13469 ft 353 kts 213°
2026-04-21 14:21 50.52497 4.40237 14235 ft 360 kts 214°
2026-04-21 14:21 50.50444 4.37965 15047 ft 362 kts 214°
2026-04-21 14:21 50.48391 4.35662 15838 ft 365 kts 215°
2026-04-21 14:22 50.46314 4.33302 16598 ft 370 kts 216°
2026-04-21 14:22 50.44231 4.30914 17406 ft 372 kts 217°
2026-04-21 14:22 50.42133 4.28498 18165 ft 377 kts 217°
2026-04-21 14:22 50.40014 4.26051 18883 ft 380 kts 217°
2026-04-21 14:23 50.37875 4.23581 19544 ft 384 kts 217°
2026-04-21 14:23 50.35719 4.21093 20251 ft 386 kts 218°
2026-04-21 14:23 50.33549 4.18593 20929 ft 389 kts 218°
2026-04-21 14:23 50.31359 4.16070 21572 ft 393 kts 218°
2026-04-21 14:24 50.29153 4.13532 22230 ft 395 kts 218°
2026-04-21 14:24 50.26931 4.10979 22881 ft 398 kts 218°
2026-04-21 14:24 50.24689 4.08406 23495 ft 402 kts 218°
2026-04-21 14:24 50.22428 4.05814 24058 ft 405 kts 218°
2026-04-21 14:25 50.20150 4.03208 24592 ft 407 kts 219°
2026-04-21 14:25 50.17865 4.00595 25123 ft 409 kts 219°
2026-04-21 14:25 50.15561 3.97964 25603 ft 412 kts 220°
2026-04-21 14:25 50.13242 3.95320 26078 ft 415 kts 219°
2026-04-21 14:26 50.10701 3.93093 26514 ft 426 kts 205°
2026-04-21 14:26 50.07798 3.91944 26956 ft 437 kts 190°
2026-04-21 14:26 50.04726 3.91975 27360 ft 447 kts 178°
2026-04-21 14:26 50.01620 3.92522 27708 ft 453 kts 176°
2026-04-21 14:27 49.98470 3.93159 28041 ft 459 kts 176°
2026-04-21 14:27 49.95332 3.93784 28400 ft 463 kts 177°
2026-04-21 14:27 49.92078 3.94389 28774 ft 467 kts 178°
2026-04-21 14:27 49.88882 3.94947 29119 ft 471 kts 178°
2026-04-21 14:28 49.85609 3.95496 29478 ft 475 kts 179°
2026-04-21 14:28 49.82309 3.96044 29807 ft 479 kts 179°
2026-04-21 14:28 49.78981 3.96599 30138 ft 483 kts 179°
2026-04-21 14:28 49.75629 3.97162 30441 ft 487 kts 179°
2026-04-21 14:29 49.72250 3.97732 30774 ft 489 kts 179°
2026-04-21 14:29 49.68868 3.98304 31145 ft 489 kts 179°
2026-04-21 14:29 49.65485 3.98875 31505 ft 490 kts 179°
2026-04-21 14:29 49.62088 3.99447 31817 ft 491 kts 179°
2026-04-21 14:30 49.58682 4.00017 32101 ft 494 kts 179°
2026-04-21 14:30 49.55262 4.00589 32417 ft 495 kts 179°
2026-04-21 14:30 49.51844 4.01158 32857 ft 492 kts 179°
2026-04-21 14:30 49.48454 4.01722 33352 ft 489 kts 179°
2026-04-21 14:31 49.45087 4.02281 33852 ft 485 kts 179°
2026-04-21 14:31 49.41735 4.02835 34282 ft 483 kts 179°
2026-04-21 14:31 49.38397 4.03386 34597 ft 483 kts 179°
2026-04-21 14:31 49.35048 4.03923 34858 ft 483 kts 179°
2026-04-21 14:32 49.31714 4.04431 35156 ft 482 kts 180°
2026-04-21 14:32 49.28384 4.04688 35486 ft 477 kts 184°
2026-04-21 14:32 49.25069 4.04748 35806 ft 475 kts 185°
2026-04-21 14:32 49.21768 4.04761 36104 ft 474 kts 185°
2026-04-21 14:33 49.18471 4.04794 36380 ft 474 kts 184°
2026-04-21 14:33 49.15170 4.04858 36683 ft 473 kts 184°
2026-04-21 14:33 49.11881 4.04941 36990 ft 472 kts 183°
2026-04-21 14:33 49.08604 4.05029 37278 ft 471 kts 183°
2026-04-21 14:34 49.05327 4.05119 37540 ft 471 kts 183°
2026-04-21 14:34 49.02054 4.05208 37809 ft 470 kts 183°
2026-04-21 14:34 48.98794 4.05294 38083 ft 469 kts 182°
2026-04-21 14:34 48.95535 4.05380 38348 ft 467 kts 182°
2026-04-21 14:35 48.92284 4.05464 38611 ft 467 kts 182°
2026-04-21 14:35 48.89039 4.05548 38846 ft 466 kts 182°
2026-04-21 14:35 48.85798 4.05632 39026 ft 466 kts 182°
2026-04-21 14:35 48.82559 4.05716 39144 ft 466 kts 182°
2026-04-21 14:36 48.79315 4.05799 39145 ft 467 kts 182°
2026-04-21 14:36 48.72858 4.05923 39157 ft 467 kts 182°
2026-04-21 14:37 48.66367 4.06024 39153 ft 466 kts 183°
2026-04-21 14:37 48.59893 4.06133 39151 ft 465 kts 183°
2026-04-21 14:38 48.53477 4.05565 39127 ft 458 kts 196°
2026-04-21 14:38 48.47272 4.03502 39125 ft 456 kts 197°
2026-04-21 14:39 48.41077 4.01417 39135 ft 456 kts 197°
2026-04-21 14:39 48.34864 3.99411 39127 ft 457 kts 196°
2026-04-21 14:40 48.28648 3.97431 39127 ft 457 kts 196°
2026-04-21 14:40 48.22408 3.95593 39128 ft 458 kts 193°
2026-04-21 14:41 48.16078 3.94261 39125 ft 459 kts 192°
2026-04-21 14:41 48.09747 3.92954 39120 ft 459 kts 193°
2026-04-21 14:42 48.03425 3.91583 39108 ft 459 kts 193°
2026-04-21 14:42 47.98169 3.90436 39103 ft 459 kts 193°
2026-04-21 14:43 47.91856 3.89059 39097 ft 459 kts 193°
2026-04-21 14:43 47.85541 3.87684 39087 ft 458 kts 193°
2026-04-21 14:44 47.79237 3.86316 39086 ft 457 kts 193°
2026-04-21 14:44 47.72946 3.84955 39079 ft 456 kts 193°
2026-04-21 14:45 47.66673 3.83600 39086 ft 455 kts 193°
2026-04-21 14:45 47.60417 3.82251 39084 ft 454 kts 193°
2026-04-21 14:46 47.54169 3.80907 39067 ft 453 kts 193°
2026-04-21 14:46 47.47945 3.79564 39068 ft 451 kts 193°
2026-04-21 14:47 47.41734 3.78223 39066 ft 451 kts 193°
2026-04-21 14:47 47.35534 3.76888 39054 ft 450 kts 193°
2026-04-21 14:48 47.29344 3.75558 39057 ft 449 kts 193°
2026-04-21 14:48 47.23202 3.74242 39051 ft 449 kts 193°
2026-04-21 14:49 47.17006 3.72917 39050 ft 451 kts 193°
2026-04-21 14:49 47.10775 3.71588 39053 ft 454 kts 193°
2026-04-21 14:50 47.04516 3.70257 39044 ft 455 kts 193°
2026-04-21 14:50 46.98251 3.68929 39034 ft 453 kts 193°
2026-04-21 14:51 46.92057 3.67620 39026 ft 448 kts 193°
2026-04-21 14:51 46.85901 3.66342 39025 ft 446 kts 193°
2026-04-21 14:52 46.79892 3.65100 39034 ft 444 kts 193°
2026-04-21 14:52 46.73780 3.63837 39026 ft 444 kts 193°
2026-04-21 14:53 46.67784 3.61918 39039 ft 441 kts 204°
2026-04-21 14:53 46.61940 3.59027 39029 ft 445 kts 205°
2026-04-21 14:54 46.56093 3.56108 39014 ft 443 kts 204°
2026-04-21 14:54 46.50273 3.53265 39018 ft 440 kts 204°
2026-04-21 14:55 46.44468 3.50464 39015 ft 438 kts 204°
2026-04-21 14:55 46.38691 3.47688 39017 ft 437 kts 204°
2026-04-21 14:56 46.32930 3.44926 39017 ft 436 kts 204°
2026-04-21 14:56 46.27169 3.42167 39025 ft 437 kts 204°
2026-04-21 14:57 46.21391 3.39406 39018 ft 438 kts 204°
2026-04-21 14:57 46.15593 3.36642 39020 ft 439 kts 204°
2026-04-21 14:58 46.09776 3.33876 39018 ft 441 kts 204°
2026-04-21 14:58 46.03930 3.31102 39015 ft 443 kts 204°
2026-04-21 14:59 45.98059 3.28323 39015 ft 445 kts 204°
2026-04-21 14:59 45.92168 3.25540 38999 ft 446 kts 204°
2026-04-21 15:00 45.86272 3.22761 38993 ft 446 kts 204°
2026-04-21 15:00 45.80358 3.20012 38643 ft 446 kts 200°
2026-04-21 15:00 45.77316 3.19125 38355 ft 448 kts 191°
2026-04-21 15:01 45.74195 3.18907 38084 ft 450 kts 186°
2026-04-21 15:01 45.71055 3.18855 37680 ft 452 kts 186°
2026-04-21 15:01 45.67926 3.18831 37255 ft 447 kts 186°
2026-04-21 15:01 45.64831 3.18805 36836 ft 443 kts 186°
2026-04-21 15:02 45.61768 3.18762 36467 ft 438 kts 187°
2026-04-21 15:02 45.58736 3.18704 36066 ft 434 kts 187°
2026-04-21 15:02 45.55726 3.18637 35673 ft 431 kts 187°
2026-04-21 15:02 45.52743 3.18563 35278 ft 428 kts 187°
2026-04-21 15:03 45.49779 3.18488 34876 ft 425 kts 188°
2026-04-21 15:03 45.46832 3.18412 34503 ft 422 kts 188°
2026-04-21 15:03 45.43909 3.18338 34115 ft 419 kts 188°
2026-04-21 15:03 45.40998 3.18264 33698 ft 417 kts 188°
2026-04-21 15:04 45.38105 3.18191 33272 ft 415 kts 188°
2026-04-21 15:04 45.35227 3.18119 32874 ft 412 kts 188°
2026-04-21 15:04 45.32408 3.18049 32492 ft 409 kts 188°
2026-04-21 15:04 45.29570 3.17978 32107 ft 407 kts 188°
2026-04-21 15:05 45.26748 3.17908 31729 ft 404 kts 188°
2026-04-21 15:05 45.21177 3.17770 31007 ft 398 kts 187°
2026-04-21 15:05 45.18411 3.17700 30636 ft 397 kts 187°
2026-04-21 15:06 45.15650 3.17631 30275 ft 396 kts 187°
2026-04-21 15:06 45.12904 3.17563 29888 ft 395 kts 187°
2026-04-21 15:06 45.10167 3.17494 29474 ft 392 kts 187°
2026-04-21 15:06 45.07447 3.17375 29059 ft 389 kts 188°
2026-04-21 15:07 45.04746 3.17218 28668 ft 387 kts 188°
2026-04-21 15:07 45.02074 3.17057 28309 ft 383 kts 188°
2026-04-21 15:07 44.99414 3.16904 27921 ft 381 kts 188°
2026-04-21 15:07 44.96775 3.16759 27554 ft 379 kts 188°
2026-04-21 15:08 44.94146 3.16641 27178 ft 377 kts 187°
2026-04-21 15:08 44.91530 3.16591 26823 ft 375 kts 186°
2026-04-21 15:08 44.88925 3.16566 26451 ft 373 kts 186°
2026-04-21 15:08 44.86335 3.16545 26096 ft 372 kts 186°
2026-04-21 15:09 44.83753 3.16520 25729 ft 370 kts 186°
2026-04-21 15:09 44.81184 3.16490 25374 ft 368 kts 186°
2026-04-21 15:09 44.78626 3.16457 25006 ft 367 kts 186°
2026-04-21 15:09 44.76082 3.16420 24645 ft 366 kts 186°
2026-04-21 15:10 44.73540 3.16384 24291 ft 364 kts 186°
2026-04-21 15:10 44.71008 3.16347 23935 ft 363 kts 186°
2026-04-21 15:10 44.68482 3.16310 23557 ft 363 kts 186°
2026-04-21 15:10 44.65959 3.16274 23155 ft 362 kts 185°
2026-04-21 15:11 44.63447 3.16238 22760 ft 360 kts 185°
2026-04-21 15:11 44.60959 3.16131 22381 ft 355 kts 191°
2026-04-21 15:11 44.58557 3.15515 22012 ft 348 kts 199°
2026-04-21 15:11 44.56220 3.14688 21660 ft 345 kts 200°
2026-04-21 15:12 44.53906 3.13838 21308 ft 342 kts 200°
2026-04-21 15:12 44.51610 3.12993 20953 ft 340 kts 200°
2026-04-21 15:12 44.49327 3.12162 20629 ft 338 kts 200°
2026-04-21 15:12 44.47057 3.11343 20286 ft 336 kts 199°
2026-04-21 15:13 44.44799 3.10535 19946 ft 334 kts 199°
2026-04-21 15:13 44.42548 3.09733 19621 ft 333 kts 199°
2026-04-21 15:13 44.40307 3.08938 19281 ft 332 kts 199°
2026-04-21 15:13 44.38069 3.08145 18946 ft 331 kts 199°
2026-04-21 15:14 44.35842 3.07359 18605 ft 330 kts 199°
2026-04-21 15:14 44.33621 3.06575 18275 ft 329 kts 199°
2026-04-21 15:14 44.31405 3.05794 17904 ft 328 kts 199°
2026-04-21 15:14 44.29199 3.05016 17536 ft 326 kts 199°
2026-04-21 15:15 44.27004 3.04244 17183 ft 325 kts 199°
2026-04-21 15:15 44.24820 3.03476 16854 ft 323 kts 199°
2026-04-21 15:15 44.22646 3.02710 16524 ft 322 kts 199°
2026-04-21 15:15 44.20476 3.01948 16172 ft 321 kts 199°
2026-04-21 15:16 44.18322 3.01193 15851 ft 318 kts 199°
2026-04-21 15:16 44.16183 3.00443 15528 ft 316 kts 199°
2026-04-21 15:16 44.14053 2.99696 15210 ft 315 kts 199°
2026-04-21 15:16 44.11930 2.98953 14870 ft 314 kts 199°
2026-04-21 15:17 44.09822 2.98215 14603 ft 310 kts 199°
2026-04-21 15:17 44.07743 2.97488 14357 ft 307 kts 199°
2026-04-21 15:17 44.05679 2.96765 14113 ft 305 kts 199°
2026-04-21 15:17 44.03618 2.96044 13878 ft 305 kts 199°
2026-04-21 15:18 44.01556 2.95322 13647 ft 307 kts 198°
2026-04-21 15:18 43.99481 2.94594 13373 ft 308 kts 198°
2026-04-21 15:18 43.97400 2.93865 13129 ft 309 kts 198°
2026-04-21 15:18 43.95317 2.93137 12859 ft 307 kts 198°
2026-04-21 15:19 43.93257 2.92419 12598 ft 303 kts 198°
2026-04-21 15:19 43.91219 2.91710 12343 ft 300 kts 198°
2026-04-21 15:19 43.89202 2.91008 12080 ft 298 kts 198°
2026-04-21 15:19 43.87199 2.90309 11824 ft 295 kts 198°
2026-04-21 15:20 43.85216 2.89618 11574 ft 293 kts 198°
2026-04-21 15:20 43.83245 2.88933 11317 ft 291 kts 198°
2026-04-21 15:20 43.81285 2.88252 11071 ft 289 kts 198°
2026-04-21 15:20 43.79338 2.87578 10833 ft 288 kts 196°
2026-04-21 15:21 43.77328 2.87500 10546 ft 295 kts 170°
2026-04-21 15:21 43.75443 2.88598 10329 ft 295 kts 150°
2026-04-21 15:21 43.73728 2.90152 10026 ft 295 kts 147°
2026-04-21 15:21 43.72049 2.91756 9722 ft 291 kts 147°
2026-04-21 15:22 43.70410 2.93332 9256 ft 291 kts 147°
2026-04-21 15:22 43.68751 2.94914 8814 ft 289 kts 147°
2026-04-21 15:22 43.67105 2.96475 8319 ft 287 kts 147°
2026-04-21 15:22 43.65369 2.97776 7875 ft 283 kts 161°
2026-04-21 15:23 43.63512 2.98640 7500 ft 280 kts 165°
2026-04-21 15:23 43.61659 2.99424 7132 ft 277 kts 164°
2026-04-21 15:23 43.59818 3.00191 6666 ft 277 kts 166°
2026-04-21 15:23 43.57974 3.00940 6214 ft 275 kts 165°
2026-04-21 15:24 43.56143 3.01698 5953 ft 273 kts 165°
2026-04-21 15:24 43.54334 3.02471 5546 ft 275 kts 164°
2026-04-21 15:24 43.52518 3.03256 5147 ft 271 kts 163°
2026-04-21 15:24 43.50746 3.04030 4853 ft 264 kts 163°
2026-04-21 15:25 43.48998 3.04815 4578 ft 264 kts 163°
2026-04-21 15:25 43.47247 3.05580 4309 ft 263 kts 163°
2026-04-21 15:25 43.45503 3.06340 4057 ft 263 kts 163°
2026-04-21 15:25 43.43747 3.07109 3794 ft 266 kts 163°
2026-04-21 15:26 43.42007 3.07873 3516 ft 259 kts 162°
2026-04-21 15:26 43.40318 3.08617 3261 ft 252 kts 162°
2026-04-21 15:26 43.38651 3.09349 3027 ft 251 kts 162°
2026-04-21 15:26 43.37000 3.10077 2832 ft 242 kts 162°
2026-04-21 15:27 43.35459 3.10760 2841 ft 225 kts 159°
2026-04-21 15:27 43.34258 3.11954 2822 ft 209 kts 122°
2026-04-21 15:27 43.33807 3.13753 2842 ft 193 kts 103°
2026-04-21 15:27 43.33552 3.15550 2616 ft 191 kts 101°
2026-04-21 15:28 43.33431 3.16742 2497 ft 190 kts 98°
2026-04-21 15:28 43.33300 3.18551 2313 ft 191 kts 96°
2026-04-21 15:28 43.33189 3.20371 2051 ft 191 kts 97°
2026-04-21 15:28 43.33082 3.22176 1800 ft 189 kts 96°
2026-04-21 15:29 43.32984 3.23927 1595 ft 179 kts 97°
2026-04-21 15:29 43.32892 3.25610 1328 ft 174 kts 98°
2026-04-21 15:29 43.32801 3.27216 1149 ft 161 kts 98°
2026-04-21 15:29 43.32721 3.28683 898 ft 150 kts 97°
2026-04-21 15:30 43.32643 3.30080 643 ft 144 kts 99°
2026-04-21 15:30 43.32562 3.31442 457 ft 147 kts 98°
2026-04-21 15:30 43.32485 3.32872 308 ft 151 kts 97°
2026-04-21 15:30 43.32401 3.34289 91 ft 148 kts 98°
2026-04-21 15:31 43.32331 3.35529 54 ft 101 kts 94°
2026-04-21 15:31 43.32295 3.36196 50 ft 44 kts 95°
2026-04-21 15:31 43.32274 3.36544 50 ft 27 kts 94°
2026-04-21 15:31 43.32255 3.36694 50 ft 10 kts 123°
2026-04-21 15:32 43.32246 3.36731 50 ft 2 kts 31°
2026-04-21 15:32 43.32267 3.36690 50 ft 11 kts 277°
2026-04-21 15:32 43.32276 3.36523 50 ft 23 kts 274°
2026-04-21 15:32 43.32290 3.36267 51 ft 29 kts 274°
2026-04-21 15:33 43.32305 3.35994 51 ft 28 kts 274°
2026-04-21 15:33 43.32320 3.35741 53 ft 26 kts 274°
2026-04-21 15:33 43.32332 3.35518 54 ft 19 kts 274°
2026-04-21 15:33 43.32337 3.35427 55 ft 7 kts 274°
2026-04-21 15:34 43.32335 3.35365 51 ft 7 kts 251°
2026-04-21 15:34 43.32297 3.35334 55 ft 7 kts 184°
2026-04-21 15:34 43.32235 3.35328 55 ft 9 kts 184°
2026-04-21 15:34 43.32187 3.35328 55 ft 6 kts 158°
2026-04-21 15:35 43.32149 3.35347 55 ft 7 kts 187°
2026-04-21 15:35 43.32137 3.35345 52 ft 0 kts 186°
2026-04-21 15:35 43.32136 3.35345 52 ft 0 kts 186°
2026-04-21 15:35 43.32131 3.35343 53 ft 2 kts 198°
2026-04-21 15:36 43.32133 3.35326 51 ft 0 kts 314°